Home   Weather   Theni   Past weeks

Flag for India Past Weather in Theni, Tamil Nadu, India — Yesterday and Last 2 Weeks

Now
86 °F

Scattered clouds.


Feels Like: 91 °F
Forecast: 75 / 86 °F
Wind: 20 mph from South

Location: Coimbatore / Peelamedu

Current Time: Jun 24, 2017 at 2:20:50 pm

Latest Report: Jun 24, 2017 at 2:00 pm


Visibility: 4 mi

Pressure: 29.74 "Hg

Humidity: 59%

Dew Point: 70 °F

Location of TheniLocation

Past Weather in Theni — Graph

°F

Theni Temperature Yesterday

Maximum temperature yesterday: 90 °F (at 1:00 pm)
Minimum temperature yesterday: 75 °F (at 12:00 am)
Average temperature yesterday: 80 °F

High & Low Weather Summary for the Past Weeks

 TemperatureHumidityPressure
High93 °F (Jun 15, 1:30 pm)100% (Jun 21, 5:30 am)29.89 "Hg (Jun 21, 5:30 am)
Low73 °F (Jun 10, 5:00 am)44% (Jun 17, 4:30 pm)29.71 "Hg (Jun 18, 4:30 pm)
Average82 °F73%29.81 "Hg
* Reported Jun 9 12:30 pm — Jun 24 1:00 pm, Theni. Weather by CustomWeather, © 2017

Note: Actual official high and low records may vary slightly from our data, if they occured in-between our weather recording intervals... More about our weather records

Advertising

Theni Weather History for the Previous 24 Hours

Scroll right to see more
 ConditionsComfort  
Time TempWeatherWind HumidityBarometerVisibility
1:00 pm
Sat, Jun 24
86 °FScattered clouds.15 mph62%29.77 "Hg4 mi
12:30 pm88 °FScattered clouds.14 mph55%29.77 "Hg4 mi
12:00 pm86 °FBroken clouds.14 mph59%29.80 "Hg4 mi
11:30 am84 °FPartly sunny.12 mph62%29.80 "Hg4 mi
11:00 am84 °FBroken clouds.12 mph62%29.80 "Hg4 mi
10:30 am82 °FPartly sunny.12 mph66%29.83 "Hg4 mi
10:00 am81 °FPartly sunny.9 mph70%29.83 "Hg4 mi
9:30 am81 °FScattered clouds.9 mph70%29.83 "Hg4 mi
9:00 am79 °FBroken clouds.9 mph74%29.83 "Hg4 mi
8:30 am77 °FFog.7 mph79%29.80 "Hg3 mi
8:00 am75 °FFog.10 mph83%29.80 "Hg3 mi
7:30 am73 °FFog.14 mph89%29.80 "Hg3 mi
6:30 am73 °FFog.12 mph89%29.80 "Hg3 mi
6:00 am73 °FFog.10 mph89%29.77 "Hg3 mi
5:30 am73 °FPassing clouds.10 mph89%29.77 "Hg4 mi
5:00 am73 °FPassing clouds.9 mph94%29.77 "Hg4 mi
4:30 am73 °FPassing clouds.9 mph94%29.77 "Hg4 mi
4:00 am73 °FPassing clouds.7 mph94%29.77 "Hg4 mi
3:30 am75 °FPassing clouds.7 mph89%29.77 "Hg4 mi
3:00 am75 °FPassing clouds.12 mph89%29.77 "Hg4 mi
2:30 am75 °FPassing clouds.9 mph89%29.77 "Hg4 mi
1:00 am75 °FPassing clouds.9 mph83%29.80 "Hg4 mi
12:30 am75 °FPassing clouds.9 mph83%29.83 "Hg4 mi
11:30 pm
Fri, Jun 23
75 °FPassing clouds.7 mph83%29.83 "Hg4 mi
11:00 pm75 °FPassing clouds.12 mph89%29.83 "Hg4 mi
10:30 pm75 °FPassing clouds.12 mph89%29.83 "Hg4 mi
10:00 pm75 °FPassing clouds.12 mph89%29.83 "Hg4 mi
9:30 pm75 °FPassing clouds.17 mph89%29.83 "Hg4 mi
9:00 pm75 °FPassing clouds.15 mph89%29.83 "Hg4 mi
8:30 pm75 °FPassing clouds.9 mph89%29.83 "Hg4 mi
7:00 pm79 °FScattered clouds.9 mph84%29.80 "Hg4 mi
6:30 pm79 °FScattered clouds.10 mph79%29.80 "Hg4 mi
6:00 pm81 °FScattered clouds.9 mph70%29.77 "Hg4 mi
5:30 pm82 °FScattered clouds.14 mph70%29.77 "Hg4 mi
4:30 pm86 °FScattered clouds.12 mph59%29.74 "Hg4 mi
3:30 pm88 °FScattered clouds.15 mph59%29.77 "Hg4 mi
3:00 pm88 °FLight rain. Scattered clouds.16 mph59%29.77 "Hg4 mi
2:30 pm90 °FScattered clouds.14 mph55%29.77 "HgN/A
2:00 pm90 °FScattered clouds.12 mph55%29.80 "HgN/A
Weather by CustomWeather, © 2017

See weather overviewHow to use our weather pages